Pocatello, ID

11:58 AM MST on December 02, 2016 (GMT -0700)
Pocatello Regional

Weather History for KPIH - March, 2014

Change the Weather History Date:

Monday, March 10, 2014

  Actual Average Record
Temperature  
Mean Temperature 45 °F 36 °F  
Max Temperature 56 °F 47 °F 65 °F (2015)
Min Temperature 34 °F 26 °F 3 °F (1969)
Degree Days  
Heating Degree Days 20 29  
Month to date heating degree days 208 304  
Since 1 July heating degree days 5188 5577  
Cooling Degree Days 0 0  
Month to date cooling degree days 0 0  
Year to date cooling degree days 0 0  
Moisture  
Dew Point 34 °F    
Average Humidity 60    
Maximum Humidity 89    
Minimum Humidity 30    
Precipitation  
Precipitation 0.12 in 0.04 in 0.17 in (1952)
Month to date precipitation 1.37 0.41  
Year to date precipitation 3.08 2.37  
Snow  
Snow T in - - ()
Month to date snowfall 1.9  
Since 1 July snowfall 20.8  
Snow Depth 0.00 in    
Sea Level Pressure  
Sea Level Pressure 29.91 in    
Wind  
Wind Speed 18 mph (SW)    
Max Wind Speed 38 mph    
Max Gust Speed 43 mph    
Visibility 10 miles    
Events Rain , Snow    
T = Trace of Precipitation, MM = Missing Value Source: NWS Daily Summary

Daily Weather History Graph

Daily Weather History Graph

Search for Another Location

Airport or City:

Trip Planner

Search our weather history database for the weather conditions in past years. The results will help you decide how hot, cold, wet, or windy it might be!

Date:

Astronomy

Mar. 10, 2014 Rise Set
Actual Time 7:50 AM MDT 7:30 PM MDT
Civil Twilight 7:22 AM MDT 7:59 PM MDT
Nautical Twilight 6:49 AM MDT 8:31 PM MDT
Astronomical Twilight 6:16 AM MDT 9:05 PM MDT
Moon 2:11 PM MDT (3/10) 4:11 AM MDT (3/10)
Length of Visible Light 12h 36m
Length of Day
11h 39m
Waxing Gibbous, 70% of the Moon is Illuminated
Mar 10
Waxing Gibbous
Mar 16
Full
Mar 23
Last Quarter
Mar 30
New
Apr 7
First Quarter

Hourly Weather History & Observations

Time (MDT) Temp. Windchill Dew Point Humidity Pressure Visibility Wind Dir Wind Speed Gust Speed Precip Events Conditions
12:53 AM 48.9 °F - 37.9 °F 66% 30.05 in 10.0 mi South 11.5 mph - 0.00 in   Overcast
2:53 AM 51.1 °F - 33.1 °F 50% 29.99 in 10.0 mi South 15.0 mph - 0.00 in   Overcast
3:53 AM 50.0 °F - 33.1 °F 52% 29.93 in 10.0 mi South 10.4 mph - N/A   Overcast
4:53 AM 48.9 °F - 32.0 °F 52% 29.90 in 10.0 mi South 12.7 mph - N/A   Clear
5:53 AM 45.0 °F 42.6 °F 30.9 °F 58% 29.87 in 10.0 mi SSW 4.6 mph - N/A   Clear
6:53 AM 51.1 °F - 27.0 °F 39% 29.84 in 10.0 mi SSW 12.7 mph - N/A   Clear
7:53 AM 53.1 °F - 25.0 °F 34% 29.82 in 10.0 mi South 17.3 mph 25.3 mph N/A   Mostly Cloudy
8:53 AM 53.1 °F - 24.1 °F 32% 29.82 in 10.0 mi South 19.6 mph - N/A   Scattered Clouds
9:53 AM 55.9 °F - 25.0 °F 30% 29.81 in 10.0 mi South 19.6 mph - N/A   Mostly Cloudy
10:53 AM 53.1 °F - 30.0 °F 41% 29.84 in 10.0 mi West 20.7 mph 27.6 mph N/A   Overcast
11:53 AM 48.9 °F - 37.9 °F 66% 29.87 in 10.0 mi West 21.9 mph - 0.00 in Rain Light Rain
12:53 PM 45.0 °F 37.1 °F 41.0 °F 86% 29.89 in 10.0 mi WSW 19.6 mph - 0.00 in Rain Light Rain
1:53 PM 46.0 °F 39.3 °F 41.0 °F 83% 29.85 in 10.0 mi WSW 16.1 mph - 0.01 in   Overcast
2:53 PM 45.0 °F 38.5 °F 39.9 °F 82% 29.83 in 10.0 mi WSW 13.8 mph - 0.00 in Rain Light Rain
3:53 PM 42.1 °F 32.6 °F 39.0 °F 89% 29.85 in 8.0 mi WSW 23.0 mph 28.8 mph 0.09 in Rain Light Rain
4:53 PM 41.0 °F 30.9 °F 37.9 °F 89% 29.87 in 10.0 mi WSW 24.2 mph 33.4 mph 0.01 in   Overcast
5:53 PM 41.0 °F 31.6 °F 37.9 °F 89% 29.89 in 10.0 mi SW 20.7 mph 28.8 mph 0.00 in   Mostly Cloudy
6:53 PM 39.0 °F 27.6 °F 35.1 °F 86% 29.87 in 10.0 mi SW 27.6 mph 35.7 mph N/A   Mostly Cloudy
7:53 PM 37.9 °F 25.9 °F 34.0 °F 86% 29.89 in 10.0 mi WSW 28.8 mph 41.4 mph N/A   Overcast
8:53 PM 37.0 °F 24.7 °F 32.0 °F 82% 29.93 in 10.0 mi West 28.8 mph 36.8 mph N/A   Overcast
9:53 PM 36.0 °F 25.3 °F 32.0 °F 86% 29.95 in 10.0 mi WSW 19.6 mph - 0.00 in Rain Light Rain
10:01 PM 36.0 °F 26.3 °F 32.0 °F 86% 29.98 in 10.0 mi WSW 16.1 mph 24.2 mph 0.00 in   Overcast
10:53 PM 36.0 °F 27.1 °F 33.1 °F 89% 29.99 in 10.0 mi WSW 13.8 mph - 0.01 in   Overcast
11:11 PM 36.0 °F 26.7 °F 33.1 °F 89% 30.01 in 10.0 mi WSW 15.0 mph - 0.00 in   Overcast
11:35 PM 36.0 °F 26.7 °F 33.1 °F 89% 30.01 in 9.0 mi SW 15.0 mph - 0.00 in   Overcast
11:51 PM 35.6 °F 26.6 °F 32.0 °F 87% 30.01 in 10.0 mi WSW 13.8 mph 20.7 mph 0.00 in Snow Light Snow
11:53 PM 35.1 °F 25.2 °F 32.0 °F 89% 30.01 in 9.0 mi WSW 16.1 mph 20.7 mph 0.00 in Snow Light Snow